GW4192 Weather Reports


time (UTC)temp
F
wind
direction
speed
knots
gust
knots
rain 1hr
in
rain 24hr
in
rain mn
in
humidity
%
barometer
mb
20260508060032 26 261 17.4 27.8 0.00 0.06 0.00 96 1001.7
20260508054538 26 245 18.2 26.9 0.00 0.06 0.00 95 1002.1
20260508053032 26 327 16.5 25.2 0.00 0.06 0.00 94 1002.4
20260508051532 26 245 16.5 22.6 0.00 0.06 0.00 94 1002.5
20260508050030 26 278 14.8 20.9 0.00 0.06 0.00 93 1002.7
20260508044534 26 273 14.8 21.7 0.00 0.07 0.00 92 1002.8
20260508043031 27 300 13.9 22.6 0.00 0.07 0.00 90 1002.9
20260508041532 27 230 14.8 21.7 0.00 0.07 0.00 89 1002.7
20260508040032 27 245 14.8 25.2 0.00 0.07 0.00 89 1002.8
20260508034538 27 23 15.6 26.9 0.00 0.10 0.07 87 1002.8
20260508033031 27 245 16.5 22.6 0.00 0.10 0.07 87 1002.9
20260508031533 27 260 16.5 24.3 0.00 0.10 0.07 86 1002.8
20260508030042 27 245 16.5 22.6 0.00 0.10 0.07 86 1002.6
20260508024540 28 245 15.6 21.7 0.00 0.20 0.07 85 1002.7
20260508023035 28 270 13.9 20.9 0.00 0.20 0.07 84 1002.8
20260508021534 28 245 13.0 21.7 0.00 0.20 0.07 83 1003.2
20260508020031 28 245 13.0 21.7 0.00 0.20 0.07 83 1002.9
20260508014531 28 271 16.5 25.2 0.00 0.24 0.07 83 1002.7
20260508013037 29 293 18.2 26.9 0.00 0.24 0.07 82 1002.6
20260508011541 29 269 15.6 22.6 0.00 0.24 0.07 82 1003.1
20260508010035 29 245 14.8 21.7 0.00 0.24 0.07 82 1002.9
20260508004533 29 271 17.4 25.2 0.00 0.26 0.07 82 1002.8
20260508003032 28 245 16.5 21.7 0.00 0.26 0.07 82 1002.7
20260508001533 29 269 12.2 22.6 0.00 0.26 0.07 81 1003.0
20260508000032 30 359 13.9 24.3 0.00 0.26 0.07 79 1002.8
20260507234529 30 245 16.5 25.2 0.00 0.38 0.07 77 1002.7
20260507233035 31 245 18.2 26.9 0.00 0.38 0.07 76 1002.2
20260507231539 31 245 17.4 30.4 0.00 0.38 0.07 75 1002.3
20260507230033 31 245 17.4 28.7 0.00 0.38 0.07 76 1002.2
20260507224531 32 245 15.6 26.9 0.00 0.41 0.07 76 1002.1
20260507223031 32 245 18.2 32.2 0.00 0.41 0.07 75 1002.2
20260507221535 32 266 19.1 27.8 0.00 0.41 0.07 76 1002.3
20260507220033 33 273 17.4 29.5 0.00 0.41 0.07 80 1001.9
20260507214532 33 245 17.4 29.5 0.00 0.43 0.07 86 1002.2
20260507213032 33 256 17.4 26.9 0.00 0.43 0.07 95 1002.3
20260507211533 33 343 13.0 20.9 0.00 0.43 0.07 97 1002.2
20260507210031 33 245 16.5 25.2 0.00 0.43 0.07 96 1002.1
20260507204532 33 245 15.6 26.9 0.00 0.47 0.07 97 1002.1
20260507203033 32 310 14.8 25.2 0.00 0.47 0.07 97 1001.8
20260507201537 33 235 14.8 26.1 0.00 0.47 0.07 97 1001.8
20260507200044 35 245 15.6 28.7 0.00 0.47 0.07 97 1001.7
20260507194532 35 308 15.6 23.5 0.00 0.52 0.07 97 1001.7
20260507193033 35 272 14.8 26.1 0.00 0.52 0.07 98 1001.8
20260507191531 34 245 16.5 26.1 0.00 0.52 0.07 99 1001.6
20260507190033 35 245 14.8 24.3 0.00 0.52 0.07 99 1002.0
20260507184531 35 245 13.9 26.9 0.00 0.64 0.07 99 1001.9
20260507183038 36 302 13.9 20.0 0.01 0.64 0.07 99 1002.0
20260507181531 36 245 11.3 20.9 0.03 0.64 0.07 99 1002.1
20260507180039 35 245 11.3 20.0 0.05 0.64 0.07 99 1002.1
20260507174534 36 275 12.2 20.0 0.05 0.78 0.07 99 1002.2
20260507173034 36 271 11.3 19.1 0.04 0.77 0.06 99 1002.2
20260507171542 34 277 12.2 20.0 0.01 0.74 0.03 99 1002.3
20260507170032 34 245 9.6 15.6 0.00 0.73 0.02 99 1002.4
20260507164536 33 245 7.8 12.2 0.00 0.76 0.02 99 1002.9
20260507163031 33 245 9.6 15.6 0.00 0.76 0.02 99 1002.7
20260507161540 34 240 9.6 14.8 0.00 0.76 0.02 99 1002.8
20260507160036 34 245 9.6 13.9 0.00 0.76 0.02 99 1003.0
20260507154536 34 245 7.8 11.3 0.00 0.77 0.02 99 1003.0
20260507153031 34 245 5.2 13.0 0.00 0.77 0.02 99 1003.2
20260507151556 35 205 7.8 14.8 0.00 0.77 0.02 99 1003.3
20260507150032 34 245 6.1 13.9 0.00 0.77 0.02 99 1003.3
20260507144534 33 245 7.8 13.9 0.00 0.81 0.02 99 1003.2
20260507143030 32 245 7.0 13.9 0.01 0.81 0.02 99 1003.2
20260507141530 32 255 10.4 15.6 0.01 0.81 0.02 99 1003.2
20260507140034 32 298 9.6 15.6 0.01 0.81 0.02 99 1003.3
20260507134542 32 245 9.6 14.8 0.01 0.82 0.02 99 1003.2
20260507133031 32 0 0.0 0.0 0.00 0.81 0.01 99 1003.2
20260507131537 32 0 0.0 0.0 0.00 0.81 0.01 99 1003.3
20260507130033 32 0 0.0 0.0 0.00 0.81 0.01 99 1003.1
20260507124533 32 0 0.0 0.0 0.00 0.81 0.01 99 1003.3
20260507123036 31 0 0.0 0.0 0.00 0.81 0.01 99 1003.0
20260507121532 31 0 0.0 0.0 0.00 0.81 0.01 99 1003.0
20260507120032 31 0 0.0 0.0 0.00 0.81 0.01 99 1003.0
20260507114535 30 0 0.0 0.0 0.00 0.81 0.01 99 1003.1
20260507113030 30 0 0.0 0.0 0.00 0.81 0.01 99 1003.3
20260507111532 30 0 0.0 0.0 0.00 0.81 0.01 99 1003.4
20260507110046 30 0 0.0 0.0 0.00 0.81 0.01 99 1003.1
20260507104532 30 0 0.0 0.0 0.00 0.81 0.01 99 1003.3
20260507103031 30 0 0.0 0.0 0.00 0.81 0.01 99 1002.8
20260507101540 30 0 3.5 14.8 0.00 0.81 0.01 99 1002.6
20260507100035 29 245 9.6 15.6 0.00 0.81 0.01 99 1002.4
20260507094532 29 245 9.6 17.4 0.00 0.81 0.01 99 1002.6
20260507093033 29 245 10.4 16.5 0.00 0.81 0.01 99 1002.1
20260507091537 29 283 11.3 16.5 0.00 0.81 0.01 99 1001.9
20260507090039 29 309 13.0 20.0 0.00 0.81 0.01 99 1001.7
20260507084537 29 314 14.8 20.9 0.00 0.81 0.01 99 1001.5
20260507083037 29 245 13.0 19.1 0.00 0.81 0.01 99 1002.3
20260507081534 29 245 13.0 18.2 0.00 0.81 0.01 99 1002.5
20260507080033 29 245 13.9 20.0 0.00 0.81 0.01 99 1001.6
20260507074542 30 298 14.8 22.6 0.00 0.83 0.01 99 1001.6
20260507073033 30 335 13.0 18.2 0.00 0.83 0.01 99 1001.2
20260507071532 30 245 13.0 20.9 0.00 0.83 0.01 99 1002.1
20260507070034 31 293 15.6 21.7 0.00 0.83 0.01 99 1001.0
20260507064536 31 245 14.8 25.2 0.00 0.84 0.01 99 1001.5
20260507063035 31 245 14.8 23.5 0.00 0.84 0.01 99 1001.1
20260507061530 31 298 17.4 29.5 0.00 0.84 0.01 99 1001.5